| time (UTC) | temp C | wind direction | speed KPH | gust KPH | rain 1hr cm | rain 24hr cm | rain mn cm | humidity % | barometer mb |
| 20260505153043 | 13 | 270 | 1.6 | 3.2 | 0.00 | 0.00 | 0.00 | 52 | 1023.2 |
| 20260505152540 | 14 | 90 | 0.0 | 0.0 | 0.00 | 0.00 | 0.00 | 52 | 1023.2 |
| 20260505152035 | 14 | 270 | 1.6 | 3.2 | 0.00 | 0.00 | 0.00 | 52 | 1023.2 |
| 20260505151531 | 14 | 45 | 1.6 | 3.2 | 0.00 | 0.00 | 0.00 | 52 | 1023.2 |
| 20260505151029 | 15 | 180 | 1.6 | 1.6 | 0.00 | 0.00 | 0.00 | 52 | 1023.2 |
| 20260505150525 | 15 | 90 | 0.0 | 1.6 | 0.00 | 0.00 | 0.00 | 52 | 1023.2 |
| 20260505140450 | 15 | 180 | 6.4 | 8.0 | 0.00 | 0.00 | 0.00 | 51 | 1023.2 |
| 20260505124903 | 15 | 135 | 8.0 | 12.9 | 0.00 | 0.00 | 0.00 | 55 | 1023.2 |
| 20260505124401 | 15 | 135 | 11.3 | 16.1 | 0.00 | 0.00 | 0.00 | 55 | 1023.2 |
| 20260505123856 | 15 | 135 | 6.4 | 8.0 | 0.00 | 0.00 | 0.00 | 56 | 1022.8 |
| 20260505123353 | 15 | 45 | 1.6 | 3.2 | 0.00 | 0.00 | 0.00 | 56 | 1023.2 |
| 20260505122849 | 15 | 180 | 3.2 | 4.8 | 0.00 | 0.00 | 0.00 | 56 | 1023.2 |
| 20260505122347 | 15 | 180 | 4.8 | 6.4 | 0.00 | 0.00 | 0.00 | 56 | 1023.2 |
| 20260505121843 | 15 | 180 | 4.8 | 8.0 | 0.00 | 0.00 | 0.00 | 56 | 1023.2 |
| 20260505121340 | 15 | 180 | 1.6 | 3.2 | 0.00 | 0.00 | 0.00 | 56 | 1022.8 |
| 20260505120836 | 15 | 135 | 11.3 | 12.9 | 0.00 | 0.00 | 0.00 | 55 | 1022.8 |
| 20260505120332 | 15 | 180 | 4.8 | 8.0 | 0.00 | 0.00 | 0.00 | 55 | 1023.2 |
| 20260505115831 | 15 | 135 | 8.0 | 9.7 | 0.00 | 0.00 | 0.00 | 55 | 1023.2 |
| 20260505115329 | 15 | 270 | 8.0 | 11.3 | 0.00 | 0.00 | 0.00 | 54 | 1022.8 |
| 20260505114827 | 15 | 180 | 4.8 | 9.7 | 0.00 | 0.00 | 0.00 | 54 | 1022.8 |
| 20260505114323 | 15 | 270 | 1.6 | 3.2 | 0.00 | 0.00 | 0.00 | 54 | 1022.8 |
| 20260505113819 | 15 | 180 | 9.7 | 16.1 | 0.00 | 0.00 | 0.00 | 53 | 1022.8 |
| 20260505113316 | 15 | 180 | 3.2 | 3.2 | 0.00 | 0.00 | 0.00 | 53 | 1022.8 |
| 20260505112811 | 15 | 135 | 8.0 | 14.5 | 0.00 | 0.00 | 0.00 | 52 | 1022.8 |
| 20260505112309 | 15 | 180 | 4.8 | 6.4 | 0.00 | 0.00 | 0.00 | 52 | 1022.5 |
| 20260505111805 | 15 | 225 | 4.8 | 8.0 | 0.00 | 0.00 | 0.00 | 52 | 1022.5 |
| 20260505111300 | 15 | 180 | 4.8 | 6.4 | 0.00 | 0.00 | 0.00 | 51 | 1022.5 |
| 20260505110756 | 15 | 270 | 4.8 | 8.0 | 0.00 | 0.00 | 0.00 | 51 | 1022.5 |
| 20260505110254 | 16 | 135 | 6.4 | 9.7 | 0.00 | 0.00 | 0.00 | 51 | 1022.2 |
| 20260505101728 | 16 | 180 | 9.7 | 11.3 | 0.00 | 0.00 | 0.00 | 50 | 1022.2 |
| 20260505101224 | 16 | 135 | 9.7 | 11.3 | 0.00 | 0.00 | 0.00 | 50 | 1022.2 |
| 20260505100721 | 16 | 180 | 11.3 | 12.9 | 0.00 | 0.00 | 0.00 | 50 | 1021.8 |
| 20260505100217 | 16 | 0 | 4.8 | 6.4 | 0.00 | 0.00 | 0.00 | 50 | 1021.5 |
| 20260505095713 | 16 | 180 | 9.7 | 14.5 | 0.00 | 0.00 | 0.00 | 50 | 1021.8 |
| 20260505095211 | 16 | 180 | 12.9 | 16.1 | 0.00 | 0.00 | 0.00 | 50 | 1021.8 |
| 20260505094706 | 16 | 270 | 6.4 | 11.3 | 0.00 | 0.00 | 0.00 | 49 | 1021.5 |
| 20260505094203 | 16 | 180 | 3.2 | 4.8 | 0.00 | 0.00 | 0.00 | 49 | 1021.5 |
| 20260505093659 | 16 | 135 | 12.9 | 27.4 | 0.00 | 0.00 | 0.00 | 49 | 1021.5 |
| 20260505093157 | 16 | 135 | 11.3 | 14.5 | 0.00 | 0.00 | 0.00 | 49 | 1021.1 |
| 20260505092654 | 16 | 90 | 11.3 | 14.5 | 0.00 | 0.00 | 0.00 | 48 | 1021.1 |
| 20260505092152 | 16 | 45 | 14.5 | 24.1 | 0.00 | 0.00 | 0.00 | 48 | 1021.5 |
| 20260505091649 | 17 | 45 | 9.7 | 14.5 | 0.00 | 0.00 | 0.00 | 47 | 1021.1 |
| 20260505091147 | 17 | 180 | 8.0 | 8.0 | 0.00 | 0.00 | 0.00 | 46 | 1020.8 |
| 20260505090644 | 17 | 180 | 6.4 | 8.0 | 0.00 | 0.00 | 0.00 | 46 | 1021.1 |
| 20260505090143 | 17 | 90 | 4.8 | 6.4 | 0.00 | 0.00 | 0.00 | 45 | 1021.1 |
| 20260505085640 | 17 | 180 | 12.9 | 17.7 | 0.00 | 0.00 | 0.00 | 45 | 1020.8 |
| 20260505085138 | 17 | 135 | 11.3 | 16.1 | 0.00 | 0.00 | 0.00 | 45 | 1020.5 |
| 20260505084635 | 17 | 135 | 6.4 | 11.3 | 0.00 | 0.00 | 0.00 | 44 | 1021.1 |
| 20260505084133 | 17 | 180 | 6.4 | 8.0 | 0.00 | 0.00 | 0.00 | 44 | 1020.8 |
| 20260505083631 | 18 | 135 | 14.5 | 17.7 | 0.00 | 0.00 | 0.00 | 43 | 1020.8 |
| 20260505083127 | 18 | 270 | 6.4 | 8.0 | 0.00 | 0.00 | 0.00 | 43 | 1020.5 |
| 20260505082623 | 18 | 135 | 8.0 | 16.1 | 0.00 | 0.00 | 0.00 | 42 | 1020.8 |
| 20260505082120 | 18 | 135 | 9.7 | 16.1 | 0.00 | 0.00 | 0.00 | 41 | 1020.8 |
| 20260505081616 | 18 | 135 | 4.8 | 8.0 | 0.00 | 0.00 | 0.00 | 41 | 1020.5 |
| 20260505081114 | 18 | 180 | 8.0 | 16.1 | 0.00 | 0.00 | 0.00 | 40 | 1020.5 |
| 20260505080610 | 18 | 180 | 12.9 | 16.1 | 0.00 | 0.00 | 0.00 | 39 | 1020.5 |
| 20260505080106 | 18 | 45 | 6.4 | 11.3 | 0.00 | 0.00 | 0.00 | 38 | 1020.5 |
| 20260505075602 | 18 | 180 | 4.8 | 9.7 | 0.00 | 0.00 | 0.00 | 38 | 1020.5 |
| 20260505075059 | 18 | 180 | 8.0 | 9.7 | 0.00 | 0.00 | 0.00 | 36 | 1020.5 |
| 20260505074556 | 19 | 180 | 4.8 | 8.0 | 0.00 | 0.00 | 0.00 | 36 | 1020.8 |
| 20260505074053 | 19 | 90 | 11.3 | 14.5 | 0.00 | 0.00 | 0.00 | 36 | 1020.5 |
| 20260505073551 | 19 | 180 | 11.3 | 16.1 | 0.00 | 0.00 | 0.00 | 35 | 1020.5 |
| 20260505073049 | 19 | 180 | 11.3 | 20.9 | 0.00 | 0.00 | 0.00 | 36 | 1020.5 |
| 20260505072549 | 19 | 135 | 11.3 | 16.1 | 0.00 | 0.00 | 0.00 | 36 | 1020.8 |
| 20260505072047 | 20 | 135 | 11.3 | 14.5 | 0.00 | 0.00 | 0.00 | 35 | 1020.5 |
| 20260505071542 | 20 | 135 | 6.4 | 8.0 | 0.00 | 0.00 | 0.00 | 35 | 1020.5 |
| 20260505071040 | 20 | 135 | 17.7 | 20.9 | 0.00 | 0.00 | 0.00 | 34 | 1020.5 |
| 20260505070537 | 20 | 180 | 11.3 | 14.5 | 0.00 | 0.00 | 0.00 | 33 | 1020.5 |
| 20260505070033 | 20 | 135 | 3.2 | 8.0 | 0.00 | 0.00 | 0.00 | 33 | 1020.1 |
| 20260505065529 | 20 | 135 | 9.7 | 16.1 | 0.00 | 0.00 | 0.00 | 32 | 1020.1 |
| 20260505065026 | 20 | 180 | 11.3 | 16.1 | 0.00 | 0.00 | 0.00 | 32 | 1020.1 |
| 20260505064523 | 20 | 180 | 12.9 | 16.1 | 0.00 | 0.00 | 0.00 | 31 | 1020.1 |
| 20260505064021 | 20 | 225 | 14.5 | 17.7 | 0.00 | 0.00 | 0.00 | 30 | 1019.8 |
| 20260505063518 | 21 | 135 | 11.3 | 19.3 | 0.00 | 0.00 | 0.00 | 29 | 1020.1 |
| 20260505063014 | 21 | 180 | 8.0 | 9.7 | 0.00 | 0.00 | 0.00 | 28 | 1019.8 |
| 20260505062511 | 21 | 135 | 16.1 | 27.4 | 0.00 | 0.00 | 0.00 | 28 | 1019.8 |
| 20260505062008 | 21 | 135 | 8.0 | 14.5 | 0.00 | 0.00 | 0.00 | 27 | 1019.8 |
| 20260505061506 | 21 | 180 | 6.4 | 8.0 | 0.00 | 0.00 | 0.00 | 27 | 1019.8 |
| 20260505061003 | 21 | 180 | 14.5 | 20.9 | 0.00 | 0.00 | 0.00 | 27 | 1019.8 |
| 20260505060501 | 21 | 270 | 14.5 | 24.1 | 0.00 | 0.00 | 0.00 | 26 | 1019.8 |
| 20260505055956 | 21 | 90 | 6.4 | 8.0 | 0.00 | 0.00 | 0.00 | 25 | 1020.1 |
| 20260505055452 | 21 | 180 | 8.0 | 12.9 | 0.00 | 0.00 | 0.00 | 24 | 1019.8 |
| 20260505054949 | 22 | 180 | 9.7 | 14.5 | 0.00 | 0.00 | 0.00 | 24 | 1019.8 |
| 20260505054447 | 22 | 180 | 9.7 | 14.5 | 0.00 | 0.00 | 0.00 | 25 | 1019.5 |
| 20260505053945 | 22 | 135 | 8.0 | 9.7 | 0.00 | 0.00 | 0.00 | 24 | 1019.8 |
| 20260505053442 | 22 | 180 | 19.3 | 20.9 | 0.00 | 0.00 | 0.00 | 23 | 1019.5 |
| 20260505052938 | 22 | 45 | 9.7 | 16.1 | 0.00 | 0.00 | 0.00 | 23 | 1019.8 |
| 20260505052435 | 22 | 180 | 11.3 | 16.1 | 0.00 | 0.00 | 0.00 | 22 | 1019.5 |
| 20260505051932 | 22 | 225 | 8.0 | 11.3 | 0.00 | 0.00 | 0.00 | 21 | 1019.5 |
| 20260505051429 | 22 | 180 | 14.5 | 20.9 | 0.00 | 0.00 | 0.00 | 21 | 1019.5 |
| 20260505050928 | 22 | 180 | 9.7 | 12.9 | 0.00 | 0.00 | 0.00 | 19 | 1019.8 |
| 20260505050426 | 22 | 180 | 4.8 | 8.0 | 0.00 | 0.00 | 0.00 | 17 | 1019.8 |
| 20260505041353 | 23 | 135 | 4.8 | 6.4 | 0.00 | 0.00 | 0.00 | 12 | 1020.1 |
| 20260505040850 | 23 | 270 | 6.4 | 8.0 | 0.00 | 0.00 | 0.00 | 12 | 1020.1 |
| 20260505040348 | 22 | 45 | 16.1 | 19.3 | 0.00 | 0.00 | 0.00 | 12 | 1020.1 |
| 20260505035844 | 22 | 45 | 11.3 | 12.9 | 0.00 | 0.00 | 0.00 | 12 | 1020.1 |
| 20260505035340 | 21 | 135 | 1.6 | 3.2 | 0.00 | 0.00 | 0.00 | 12 | 1020.1 |
| 20260505034838 | 21 | 45 | 11.3 | 14.5 | 0.00 | 0.00 | 0.00 | 12 | 1020.1 |
| 20260505034334 | 21 | 45 | 9.7 | 11.3 | 0.00 | 0.00 | 0.00 | 16 | 1020.1 |
| 20260505033831 | 21 | 270 | 3.2 | 4.8 | 0.00 | 0.00 | 0.00 | 13 | 1020.1 |
| 20260505033328 | 21 | 0 | 8.0 | 11.3 | 0.00 | 0.00 | 0.00 | 13 | 1020.5 |
| 20260505032826 | 21 | 0 | 9.7 | 12.9 | 0.00 | 0.00 | 0.00 | 13 | 1020.5 |
| 20260505032322 | 21 | 45 | 4.8 | 8.0 | 0.00 | 0.00 | 0.00 | 13 | 1020.5 |
| 20260505031820 | 21 | 45 | 16.1 | 20.9 | 0.00 | 0.00 | 0.00 | 13 | 1020.1 |
| 20260505031316 | 21 | 45 | 3.2 | 4.8 | 0.00 | 0.00 | 0.00 | 16 | 1020.5 |
| 20260505030813 | 21 | 45 | 4.8 | 8.0 | 0.00 | 0.00 | 0.00 | 18 | 1020.1 |
| 20260505030310 | 20 | 90 | 3.2 | 4.8 | 0.00 | 0.00 | 0.00 | 16 | 1019.8 |
| 20260505025805 | 20 | 45 | 12.9 | 16.1 | 0.00 | 0.00 | 0.00 | 18 | 1020.5 |
| 20260505025304 | 20 | 90 | 3.2 | 4.8 | 0.00 | 0.00 | 0.00 | 18 | 1020.1 |
| 20260505024801 | 20 | 90 | 4.8 | 6.4 | 0.00 | 0.00 | 0.00 | 18 | 1020.1 |
| 20260505024258 | 20 | 90 | 8.0 | 11.3 | 0.00 | 0.00 | 0.00 | 19 | 1020.1 |
| 20260505023755 | 20 | 225 | 1.6 | 3.2 | 0.00 | 0.00 | 0.00 | 18 | 1020.1 |
| 20260505023252 | 20 | 270 | 3.2 | 6.4 | 0.00 | 0.00 | 0.00 | 18 | 1020.1 |
| 20260505022749 | 20 | 45 | 4.8 | 4.8 | 0.00 | 0.00 | 0.00 | 19 | 1020.5 |
| 20260505022246 | 20 | 45 | 4.8 | 8.0 | 0.00 | 0.00 | 0.00 | 19 | 1020.5 |
| 20260505021743 | 20 | 45 | 14.5 | 16.1 | 0.00 | 0.00 | 0.00 | 20 | 1020.5 |
| 20260505021240 | 20 | 90 | 1.6 | 3.2 | 0.00 | 0.00 | 0.00 | 22 | 1020.5 |
| 20260505020736 | 20 | 0 | 3.2 | 4.8 | 0.00 | 0.00 | 0.00 | 22 | 1020.5 |
| 20260505020231 | 20 | 0 | 1.6 | 3.2 | 0.00 | 0.00 | 0.00 | 20 | 1020.5 |
| 20260505015729 | 20 | 45 | 1.6 | 1.6 | 0.00 | 0.00 | 0.00 | 20 | 1020.1 |
| 20260505015226 | 20 | 180 | 8.0 | 11.3 | 0.00 | 0.00 | 0.00 | 20 | 1020.5 |
| 20260505014723 | 20 | 0 | 8.0 | 11.3 | 0.00 | 0.00 | 0.00 | 20 | 1020.1 |
| 20260505014220 | 19 | 45 | 9.7 | 11.3 | 0.00 | 0.00 | 0.00 | 20 | 1020.1 |
| 20260505013717 | 20 | 45 | 9.7 | 11.3 | 0.00 | 0.00 | 0.00 | 20 | 1020.1 |
| 20260505013214 | 19 | 180 | 8.0 | 16.1 | 0.00 | 0.00 | 0.00 | 20 | 1020.5 |
| 20260505012712 | 19 | 45 | 6.4 | 11.3 | 0.00 | 0.00 | 0.00 | 21 | 1020.1 |
| 20260505012209 | 19 | 90 | 12.9 | 17.7 | 0.00 | 0.00 | 0.00 | 23 | 1020.1 |
| 20260505011704 | 19 | 135 | 12.9 | 16.1 | 0.00 | 0.00 | 0.00 | 21 | 1020.1 |
| 20260505011202 | 19 | 90 | 4.8 | 8.0 | 0.00 | 0.00 | 0.00 | 21 | 1020.1 |
| 20260505010657 | 19 | 45 | 17.7 | 20.9 | 0.00 | 0.00 | 0.00 | 21 | 1020.1 |
| 20260505010154 | 19 | 0 | 6.4 | 8.0 | 0.00 | 0.00 | 0.00 | 21 | 1020.1 |
| 20260505005650 | 18 | 45 | 6.4 | 8.0 | 0.00 | 0.00 | 0.00 | 21 | 1020.5 |
| 20260505005147 | 18 | 45 | 14.5 | 16.1 | 0.00 | 0.00 | 0.00 | 24 | 1020.1 |
| 20260505004644 | 18 | 45 | 6.4 | 8.0 | 0.00 | 0.00 | 0.00 | 24 | 1020.1 |
| 20260505004141 | 18 | 0 | 8.0 | 12.9 | 0.00 | 0.00 | 0.00 | 24 | 1019.8 |
| 20260505003638 | 18 | 45 | 8.0 | 9.7 | 0.00 | 0.00 | 0.00 | 24 | 1020.1 |
| 20260505003136 | 18 | 45 | 9.7 | 11.3 | 0.00 | 0.00 | 0.00 | 25 | 1019.8 |
| 20260505002631 | 18 | 90 | 3.2 | 6.4 | 0.00 | 0.00 | 0.00 | 25 | 1020.1 |
| 20260505002130 | 18 | 45 | 14.5 | 17.7 | 0.00 | 0.00 | 0.00 | 25 | 1020.1 |
| 20260505001626 | 18 | 270 | 9.7 | 16.1 | 0.00 | 0.00 | 0.00 | 25 | 1019.8 |
| 20260505001124 | 18 | 225 | 9.7 | 12.9 | 0.00 | 0.00 | 0.00 | 25 | 1019.8 |
| 20260505000621 | 18 | 0 | 4.8 | 6.4 | 0.00 | 0.00 | 0.00 | 25 | 1019.8 |
| 20260505000119 | 18 | 270 | 8.0 | 9.7 | 0.00 | 0.00 | 0.00 | 25 | 1020.1 |
| 20260504235615 | 18 | 315 | 4.8 | 8.0 | 0.00 | 0.00 | 0.00 | 25 | 1020.1 |
| 20260504235112 | 18 | 45 | 8.0 | 8.0 | 0.00 | 0.00 | 0.00 | 25 | 1019.8 |
| 20260504234609 | 18 | 0 | 4.8 | 6.4 | 0.00 | 0.00 | 0.00 | 25 | 1020.1 |
| 20260504234106 | 18 | 0 | 9.7 | 11.3 | 0.00 | 0.00 | 0.00 | 25 | 1020.1 |
| 20260504233601 | 18 | 0 | 12.9 | 17.7 | 0.00 | 0.00 | 0.00 | 25 | 1020.5 |
| 20260504233058 | 18 | 270 | 4.8 | 6.4 | 0.00 | 0.00 | 0.00 | 25 | 1020.1 |
| 20260504232555 | 18 | 45 | 9.7 | 12.9 | 0.00 | 0.00 | 0.00 | 25 | 1020.5 |
| 20260504232053 | 18 | 0 | 9.7 | 12.9 | 0.00 | 0.00 | 0.00 | 25 | 1020.5 |
| 20260504231549 | 18 | 315 | 11.3 | 11.3 | 0.00 | 0.00 | 0.00 | 25 | 1020.5 |
| 20260504231045 | 18 | 270 | 3.2 | 4.8 | 0.00 | 0.00 | 0.00 | 24 | 1020.5 |
| 20260504230541 | 19 | 0 | 11.3 | 20.9 | 0.00 | 0.00 | 0.00 | 23 | 1020.5 |
| 20260504230041 | 20 | 315 | 9.7 | 11.3 | 0.00 | 0.00 | 0.00 | 24 | 1020.5 |
| 20260504225537 | 20 | 45 | 8.0 | 9.7 | 0.00 | 0.00 | 0.00 | 24 | 1020.5 |
| 20260504225035 | 21 | 0 | 12.9 | 12.9 | 0.00 | 0.00 | 0.00 | 24 | 1020.1 |
| 20260504224531 | 21 | 270 | 12.9 | 12.9 | 0.00 | 0.00 | 0.00 | 25 | 1020.1 |
| 20260504224028 | 21 | 0 | 4.8 | 6.4 | 0.00 | 0.00 | 0.00 | 26 | 1020.1 |
| 20260504223525 | 21 | 0 | 11.3 | 19.3 | 0.00 | 0.00 | 0.00 | 28 | 1020.1 |
| 20260504223021 | 20 | 0 | 11.3 | 14.5 | 0.00 | 0.00 | 0.00 | 29 | 1020.1 |
| 20260504222518 | 20 | 0 | 11.3 | 12.9 | 0.00 | 0.00 | 0.00 | 30 | 1020.1 |
| 20260504222015 | 20 | 270 | 8.0 | 11.3 | 0.00 | 0.00 | 0.00 | 30 | 1020.1 |
| 20260504221513 | 19 | 0 | 9.7 | 11.3 | 0.00 | 0.00 | 0.00 | 32 | 1020.1 |
| 20260504221009 | 18 | 0 | 4.8 | 6.4 | 0.00 | 0.00 | 0.00 | 34 | 1020.1 |
| 20260504220506 | 18 | 315 | 6.4 | 6.4 | 0.00 | 0.00 | 0.00 | 35 | 1020.1 |
| 20260504220003 | 17 | 315 | 6.4 | 6.4 | 0.00 | 0.00 | 0.00 | 36 | 1019.8 |
| 20260504215459 | 16 | 270 | 8.0 | 11.3 | 0.00 | 0.00 | 0.00 | 37 | 1019.8 |
| 20260504214956 | 15 | 180 | 6.4 | 8.0 | 0.00 | 0.00 | 0.00 | 36 | 1019.8 |
| 20260504214452 | 15 | 315 | 6.4 | 8.0 | 0.00 | 0.00 | 0.00 | 36 | 1019.8 |
| 20260504213949 | 15 | 0 | 8.0 | 11.3 | 0.00 | 0.00 | 0.00 | 36 | 1019.8 |
| 20260504213445 | 15 | 270 | 8.0 | 9.7 | 0.00 | 0.00 | 0.00 | 36 | 1019.8 |
| 20260504212943 | 15 | 270 | 16.1 | 19.3 | 0.00 | 0.00 | 0.00 | 36 | 1019.5 |
| 20260504212438 | 15 | 315 | 8.0 | 11.3 | 0.00 | 0.00 | 0.00 | 38 | 1019.5 |
| 20260504211936 | 15 | 270 | 6.4 | 11.3 | 0.00 | 0.00 | 0.00 | 39 | 1019.5 |
| 20260504211432 | 14 | 270 | 8.0 | 11.3 | 0.00 | 0.00 | 0.00 | 39 | 1019.1 |
| 20260504210930 | 14 | 0 | 4.8 | 8.0 | 0.00 | 0.00 | 0.00 | 39 | 1019.1 |
| 20260504210427 | 13 | 270 | 4.8 | 4.8 | 0.00 | 0.00 | 0.00 | 39 | 1019.1 |
| 20260504205924 | 13 | 45 | 4.8 | 8.0 | 0.00 | 0.00 | 0.00 | 39 | 1019.1 |
| 20260504205421 | 13 | 315 | 4.8 | 8.0 | 0.00 | 0.00 | 0.00 | 40 | 1018.8 |
| 20260504204919 | 13 | 0 | 4.8 | 8.0 | 0.00 | 0.00 | 0.00 | 40 | 1018.8 |
| 20260504204418 | 13 | 0 | 4.8 | 6.4 | 0.00 | 0.00 | 0.00 | 40 | 1018.8 |
| 20260504203917 | 13 | 0 | 8.0 | 9.7 | 0.00 | 0.00 | 0.00 | 39 | 1018.4 |
| 20260504203414 | 13 | 0 | 3.2 | 6.4 | 0.00 | 0.00 | 0.00 | 39 | 1018.4 |
| 20260504202909 | 13 | 270 | 3.2 | 6.4 | 0.00 | 0.00 | 0.00 | 39 | 1018.0 |
| 20260504202406 | 12 | 315 | 6.4 | 9.7 | 0.00 | 0.00 | 0.00 | 40 | 1018.0 |
| 20260504201903 | 12 | 270 | 11.3 | 14.5 | 0.00 | 0.00 | 0.00 | 40 | 1017.7 |
| 20260504201401 | 12 | 270 | 3.2 | 4.8 | 0.00 | 0.00 | 0.00 | 40 | 1017.7 |
| 20260504200857 | 12 | 270 | 8.0 | 11.3 | 0.00 | 0.00 | 0.00 | 40 | 1017.7 |
| 20260504200354 | 12 | 0 | 4.8 | 8.0 | 0.00 | 0.00 | 0.00 | 41 | 1017.3 |
| 20260504195851 | 12 | 0 | 4.8 | 6.4 | 0.00 | 0.00 | 0.00 | 41 | 1017.3 |
| 20260504195346 | 12 | 315 | 9.7 | 11.3 | 0.00 | 0.00 | 0.00 | 40 | 1017.3 |
| 20260504194843 | 12 | 270 | 12.9 | 14.5 | 0.00 | 0.00 | 0.00 | 40 | 1017.3 |
| 20260504194339 | 12 | 270 | 11.3 | 12.9 | 0.00 | 0.00 | 0.00 | 40 | 1017.0 |
| 20260504193835 | 12 | 0 | 8.0 | 19.3 | 0.00 | 0.00 | 0.00 | 40 | 1017.0 |
| 20260504193333 | 13 | 270 | 4.8 | 11.3 | 0.00 | 0.00 | 0.00 | 39 | 1017.0 |
| 20260504192831 | 13 | 270 | 4.8 | 8.0 | 0.00 | 0.00 | 0.00 | 39 | 1016.6 |
| 20260504192329 | 13 | 315 | 8.0 | 11.3 | 0.00 | 0.00 | 0.00 | 39 | 1016.6 |
| 20260504191827 | 13 | 315 | 17.7 | 22.5 | 0.00 | 0.00 | 0.00 | 39 | 1016.6 |
| 20260504191324 | 13 | 270 | 12.9 | 29.0 | 0.00 | 0.00 | 0.00 | 39 | 1016.3 |
| 20260504190820 | 13 | 0 | 8.0 | 19.3 | 0.00 | 0.00 | 0.00 | 39 | 1016.3 |
| 20260504190316 | 13 | 0 | 11.3 | 20.9 | 0.00 | 0.00 | 0.00 | 39 | 1016.0 |
| 20260504185813 | 13 | 270 | 11.3 | 24.1 | 0.00 | 0.00 | 0.00 | 40 | 1016.0 |
| 20260504185310 | 13 | 270 | 16.1 | 20.9 | 0.00 | 0.00 | 0.00 | 40 | 1015.6 |
| 20260504184806 | 13 | 0 | 17.7 | 20.9 | 0.00 | 0.00 | 0.00 | 40 | 1015.6 |
| 20260504184302 | 13 | 0 | 11.3 | 12.9 | 0.00 | 0.00 | 0.00 | 40 | 1015.6 |
| 20260504183758 | 13 | 270 | 20.9 | 24.1 | 0.00 | 0.00 | 0.00 | 41 | 1015.6 |
| 20260504183255 | 13 | 270 | 8.0 | 11.3 | 0.00 | 0.00 | 0.00 | 41 | 1015.6 |
| 20260504182753 | 13 | 270 | 12.9 | 20.9 | 0.00 | 0.00 | 0.00 | 42 | 1014.9 |
| 20260504182250 | 13 | 0 | 14.5 | 22.5 | 0.00 | 0.00 | 0.00 | 42 | 1014.9 |
| 20260504181747 | 13 | 0 | 19.3 | 30.6 | 0.00 | 0.00 | 0.00 | 43 | 1014.9 |
| 20260504181244 | 13 | 0 | 12.9 | 16.1 | 0.00 | 0.00 | 0.00 | 43 | 1014.9 |
| 20260504180743 | 13 | 270 | 4.8 | 9.7 | 0.00 | 0.00 | 0.00 | 44 | 1014.6 |
| 20260504180242 | 13 | 0 | 14.5 | 20.9 | 0.00 | 0.00 | 0.00 | 44 | 1014.6 |
| 20260504175739 | 13 | 0 | 8.0 | 17.7 | 0.00 | 0.00 | 0.00 | 44 | 1014.3 |
| 20260504175235 | 13 | 0 | 14.5 | 19.3 | 0.00 | 0.00 | 0.00 | 45 | 1014.3 |
| 20260504174734 | 13 | 0 | 12.9 | 16.1 | 0.00 | 0.00 | 0.00 | 46 | 1014.3 |
| 20260504174231 | 13 | 270 | 8.0 | 11.3 | 0.00 | 0.00 | 0.00 | 46 | 1013.9 |
| 20260504173727 | 13 | 0 | 14.5 | 17.7 | 0.00 | 0.00 | 0.00 | 46 | 1013.6 |
| 20260504173224 | 13 | 0 | 17.7 | 25.7 | 0.00 | 0.00 | 0.00 | 46 | 1013.6 |
| 20260504172721 | 13 | 0 | 11.3 | 16.1 | 0.00 | 0.00 | 0.00 | 46 | 1013.3 |
| 20260504172217 | 12 | 0 | 11.3 | 20.9 | 0.00 | 0.00 | 0.00 | 47 | 1013.3 |
| 20260504171714 | 12 | 0 | 17.7 | 20.9 | 0.00 | 0.00 | 0.00 | 47 | 1013.3 |
| 20260504171211 | 12 | 0 | 14.5 | 17.7 | 0.00 | 0.00 | 0.00 | 47 | 1013.3 |
| 20260504170708 | 12 | 0 | 25.7 | 32.2 | 0.00 | 0.00 | 0.00 | 47 | 1012.9 |
| 20260504170206 | 12 | 0 | 16.1 | 24.1 | 0.00 | 0.00 | 0.00 | 48 | 1012.9 |
| 20260504160124 | 13 | 0 | 9.7 | 16.1 | 0.00 | 0.00 | 0.00 | 47 | 1011.2 |